Flag Weather past 2 weeks in Basseterre, Saint Kitts and Nevis

Now
84 °F

Passing clouds.


Feels Like: 87 °F
Forecast: 79 / 82 °F
Wind: 6 mph from East

Location: Golden Rock

Current Time: Nov 27, 2014 at 2:21:40 PM

Latest Report: Nov 27, 2014 at 2:00 PM


Visibility: N/A

Pressure: 29.92 "Hg

Humidity: 58%

Dew point: 68 °F

Location of BasseterreLocation

Historic Weather in Basseterre — Graph

°F

Basseterre temperature yesterday

Maximum temperature yesterday: 86 °F (at 10:00 AM)
Minimum temperature yesterday: 79 °F (at 6:00 AM)
Average temperature yesterday: 82 °F

Past Weeks' High & Low Weather Summary

 TemperatureHumidityPressure
High88 °F (Nov 14, 12:00 PM)100% (Nov 13, 6:00 AM)30.07 "Hg (Nov 13, 6:00 AM)
Low72 °F (Nov 20, 6:00 AM)59% (Nov 25, 1:00 PM)29.86 "Hg (Nov 12, 3:00 PM)
Average82 °F78%29.98 "Hg
* Reported Nov 12 1:00 PM — Nov 27 1:00 PM, Basseterre, Weather by CustomWeather, © 2014

Note: Actual official high and low records may vary slightly from our data, if they occured in-between our weather recording intervals... More about our weather records

Advertising

Basseterre weather history for previous 24 hours

 ConditionsComfort  
Time TempWeatherWind HumidityBarometerVisibility
1:00 PM
Nov 27
84 °FPassing clouds.13 mph62%29.95 "HgN/A
12:00 PM84 °FPassing clouds.14 mph62%29.95 "HgN/A
11:00 AM84 °FPassing clouds.13 mph62%29.98 "HgN/A
10:00 AM82 °FPassing clouds.12 mph66%30.01 "HgN/A
9:00 AM82 °FPassing clouds.9 mph66%30.01 "HgN/A
8:00 AM81 °FPassing clouds.12 mph66%29.98 "HgN/A
7:00 AM77 °FPassing clouds.7 mph74%29.98 "HgN/A
6:00 AM77 °FPassing clouds.12 mph74%29.95 "HgN/A
9:00 PM
Nov 26
79 °FPassing clouds.16 mph79%30.01 "HgN/A
8:00 PM79 °FPassing clouds.15 mph79%29.98 "HgN/A
7:00 PM81 °FPassing clouds.21 mph79%29.98 "HgN/A
6:00 PM81 °FPassing clouds.15 mph79%29.98 "HgN/A
5:00 PM81 °FScattered clouds.13 mph74%29.95 "HgN/A
4:00 PM82 °FScattered showers. Partly sunny.16 mph74%29.95 "HgN/A
3:00 PM84 °FScattered clouds.17 mph70%29.95 "HgN/A
2:00 PM84 °FPassing clouds.17 mph70%29.95 "HgN/A
Weather by CustomWeather, © 2014

See weather overviewHow to use our weather pages